Flag for Germany Weather past 2 weeks in Rendsburg, Schleswig-Holstein, Germany

Now
79 °F

Warm.


Feels Like: 80 °F
Forecast: 62 / 79 °F
Wind: 13 mph from Northeast

Location: Hohn

Current Time: Jul 28, 2014 at 7:59:12 PM

Latest Report: Jul 28, 2014 at 7:20 PM


Visibility: 5 mi

Pressure: 29.89 "Hg

Humidity: 51%

Dew point: 59 °F

Location of RendsburgLocation

Historic Weather in Rendsburg — Graph

°F

Rendsburg temperature yesterday

Maximum temperature yesterday: 81 °F (at 1:20 PM)
Minimum temperature yesterday: 59 °F (at 3:20 AM)
Average temperature yesterday: 70 °F

Past Weeks' High & Low Weather Summary

 TemperatureHumidityPressure
High88 °F (Jul 19, 2:20 PM)100% (Jul 16, 6:20 AM)30.21 "Hg (Jul 16, 6:20 AM)
Low48 °F (Jul 17, 4:20 AM)30% (Jul 25, 5:20 PM)29.62 "Hg (Jul 13, 6:20 PM)
Average69 °F70%30.01 "Hg
* Reported Jul 13 6:20 PM — Jul 28 6:20 PM, Rendsburg, Weather by CustomWeather, © 2014

Note: Actual official high and low records may vary slightly from our data, if they occured in-between our weather recording intervals... More about our weather records

Advertising

Rendsburg weather history for previous 24 hours

 ConditionsComfort  
Time TempWeatherWind HumidityBarometerVisibility
6:20 PM
Jul 28
81 °FPassing clouds.9 mph48%29.89 "HgN/A
5:20 PM81 °FPassing clouds.9 mph48%29.89 "HgN/A
4:20 PM81 °FPassing clouds.9 mph51%29.92 "HgN/A
3:20 PM81 °FScattered clouds.9 mph51%29.92 "HgN/A
2:20 PM79 °FScattered clouds.6 mph51%29.92 "HgN/A
1:20 PM79 °FPassing clouds.5 mph54%29.95 "HgN/A
12:20 PM75 °FScattered clouds.8 mph61%29.95 "HgN/A
11:20 AM75 °FScattered clouds.7 mph65%29.95 "HgN/A
10:20 AM72 °FScattered clouds.6 mph73%29.95 "Hg5 mi
10:00 AM70 °FScattered clouds.5 mph78%29.95 "Hg5 mi
9:20 AM68 °FFog.2 mph88%29.95 "Hg3 mi
9:04 AM66 °FFog.2 mph94%29.98 "Hg1 mi
8:20 AM63 °FFog.2 mph100%29.98 "Hg0 mi
7:20 AM59 °FFog.3 mph100%29.95 "Hg0 mi
6:20 AM57 °FFog.1 mph94%29.95 "Hg0 mi
5:20 AM57 °FFog.3 mph94%29.95 "Hg0 mi
4:20 AM57 °FCool.2 mph94%29.95 "Hg0 mi
3:20 AM59 °FCool.No wind94%29.95 "Hg0 mi
2:20 AM59 °FCool.2 mph94%29.95 "Hg1 mi
1:20 AM63 °FMild.6 mph94%29.95 "Hg2 mi
12:20 AM63 °FMild.7 mph94%29.98 "Hg3 mi
11:20 PM
Jul 27
64 °FMild.5 mph94%29.95 "Hg4 mi
10:20 PM66 °FMild.5 mph88%29.98 "Hg4 mi
9:20 PM68 °FMild.5 mph88%29.95 "Hg5 mi
8:20 PM72 °FMild.9 mph78%29.95 "Hg5 mi
7:20 PM73 °FMild.9 mph74%29.92 "Hg5 mi
Weather by CustomWeather, © 2014

See weather overviewHow to use our weather pages